Time,TemperatureF,DewpointF,PressureIn,WindDirection,WindDirectionDegrees,WindSpeedMPH,WindSpeedGustMPH,Humidity,HourlyPrecipIn,Conditions,Clouds,dailyrainin,SolarRadiationWatts/m^2,SoftwareType,DateUTC
2013-05-23 01:28:00,78.4,73.0,29.99,SE,130,7.0,12.0,84,0.00,,,0.00,0,weatherlink.com 1.10,2013-05-23 05:28:00,
2013-05-23 01:43:00,78.7,73.0,29.99,ENE,71,11.0,21.0,82,0.00,,,0.00,0,weatherlink.com 1.10,2013-05-23 05:43:00,
2013-05-23 01:58:00,78.9,73.0,29.98,ENE,73,15.0,21.0,81,0.00,,,0.00,0,weatherlink.com 1.10,2013-05-23 05:58:00,
2013-05-23 02:13:00,79.0,73.0,29.98,ENE,78,3.0,17.0,82,0.00,,,0.00,0,weatherlink.com 1.10,2013-05-23 06:13:00,
2013-05-23 02:28:00,78.5,72.0,29.98,ENE,71,10.0,12.0,81,0.00,,,0.00,0,weatherlink.com 1.10,2013-05-23 06:28:00,
2013-05-23 02:43:00,78.3,72.0,29.98,East,95,6.0,13.0,81,0.00,,,0.00,0,weatherlink.com 1.10,2013-05-23 06:43:00,
2013-05-23 02:58:00,78.1,72.0,29.98,ENE,78,8.0,15.0,81,0.00,,,0.00,0,weatherlink.com 1.10,2013-05-23 06:58:00,
2013-05-23 03:13:00,77.9,71.0,29.98,East,94,8.0,13.0,80,0.00,,,0.00,0,weatherlink.com 1.10,2013-05-23 07:13:00,
2013-05-23 03:28:00,77.8,71.0,29.97,East,86,2.0,9.0,80,0.00,,,0.00,0,weatherlink.com 1.10,2013-05-23 07:28:00,
2013-05-23 03:43:00,77.8,71.0,29.97,East,92,6.0,9.0,80,0.00,,,0.00,0,weatherlink.com 1.10,2013-05-23 07:43:00,
2013-05-23 03:58:00,77.8,71.0,29.97,ENE,76,7.0,11.0,79,0.00,,,0.00,0,weatherlink.com 1.10,2013-05-23 07:58:00,
2013-05-23 04:13:00,77.9,71.0,29.97,ENE,63,2.0,11.0,79,0.00,,,0.00,0,weatherlink.com 1.10,2013-05-23 08:13:00,
2013-05-23 04:28:00,77.9,71.0,29.97,ENE,78,4.0,8.0,80,0.00,,,0.00,0,weatherlink.com 1.10,2013-05-23 08:28:00,
2013-05-23 04:43:00,77.8,72.0,29.97,ENE,72,1.0,9.0,81,0.00,,,0.00,0,weatherlink.com 1.10,2013-05-23 08:43:00,
2013-05-23 04:58:00,77.6,72.0,29.97,East,85,8.0,10.0,82,0.00,,,0.00,0,weatherlink.com 1.10,2013-05-23 08:58:00,
2013-05-23 05:13:00,77.5,72.0,29.98,East,84,6.0,7.0,83,0.00,,,0.00,0,weatherlink.com 1.10,2013-05-23 09:13:00,
2013-05-23 05:28:00,77.4,72.0,29.98,East,82,3.0,9.0,83,0.00,,,0.00,0,weatherlink.com 1.10,2013-05-23 09:28:00,
2013-05-23 05:43:00,77.6,72.0,29.98,ENE,66,10.0,10.0,83,0.00,,,0.00,0,weatherlink.com 1.10,2013-05-23 09:43:00,
2013-05-23 05:58:00,77.7,72.0,29.98,East,79,2.0,11.0,83,0.00,,,0.00,7,weatherlink.com 1.10,2013-05-23 09:58:00,
2013-05-23 06:13:00,77.7,72.0,29.98,ESE,119,5.0,11.0,83,0.00,,,0.00,46,weatherlink.com 1.10,2013-05-23 10:13:00,
2013-05-23 06:28:00,78.1,72.0,29.99,East,89,6.0,11.0,82,0.00,,,0.00,113,weatherlink.com 1.10,2013-05-23 10:28:00,
2013-05-23 06:43:00,78.8,73.0,30.00,ENE,78,8.0,12.0,81,0.00,,,0.00,70,weatherlink.com 1.10,2013-05-23 10:43:00,
2013-05-23 06:58:00,78.7,72.0,30.00,East,88,8.0,13.0,81,0.00,,,0.00,53,weatherlink.com 1.10,2013-05-23 10:58:00,
2013-05-23 07:13:00,78.8,73.0,30.01,East,95,6.0,10.0,81,0.00,,,0.00,95,weatherlink.com 1.10,2013-05-23 11:13:00,
2013-05-23 07:28:00,78.9,73.0,30.01,ENE,66,7.0,13.0,82,0.00,,,0.00,51,weatherlink.com 1.10,2013-05-23 11:28:00,
2013-05-23 07:43:00,79.6,73.0,30.02,East,89,8.0,14.0,81,0.00,,,0.00,274,weatherlink.com 1.10,2013-05-23 11:43:00,
2013-05-23 07:58:00,81.2,74.0,30.02,East,87,6.0,14.0,78,0.00,,,0.00,427,weatherlink.com 1.10,2013-05-23 11:58:00,
2013-05-23 08:13:00,82.0,73.0,30.02,SE,124,8.0,14.0,75,0.00,,,0.00,471,weatherlink.com 1.10,2013-05-23 12:13:00,
2013-05-23 08:28:00,83.4,74.0,30.03,NE,55,13.0,13.0,74,0.00,,,0.00,663,weatherlink.com 1.10,2013-05-23 12:28:00,
2013-05-23 08:43:00,83.0,74.0,30.03,East,90,9.0,16.0,74,0.00,,,0.00,257,weatherlink.com 1.10,2013-05-23 12:43:00,
2013-05-23 08:58:00,82.8,74.0,30.04,ENE,74,10.0,21.0,75,0.00,,,0.00,336,weatherlink.com 1.10,2013-05-23 12:58:00,
2013-05-23 09:13:00,82.3,74.0,30.04,ENE,71,7.0,16.0,75,0.00,,,0.00,299,weatherlink.com 1.10,2013-05-23 13:13:00,
2013-05-23 09:28:00,82.1,74.0,30.04,NE,46,9.0,17.0,77,0.00,,,0.00,399,weatherlink.com 1.10,2013-05-23 13:28:00,
2013-05-23 09:44:00,82.5,74.0,30.04,East,83,11.0,22.0,76,0.00,,,0.00,519,weatherlink.com 1.10,2013-05-23 13:44:00,
2013-05-23 09:59:00,83.2,75.0,30.04,ENE,69,12.0,15.0,76,0.00,,,0.00,972,weatherlink.com 1.10,2013-05-23 13:59:00,
2013-05-23 10:14:00,83.5,75.0,30.04,ENE,72,12.0,17.0,76,0.00,,,0.00,285,weatherlink.com 1.10,2013-05-23 14:14:00,
2013-05-23 10:29:00,82.8,75.0,30.04,ENE,72,7.0,18.0,78,0.00,,,0.00,954,weatherlink.com 1.10,2013-05-23 14:29:00,
2013-05-23 10:44:00,84.3,75.0,30.04,East,92,10.0,18.0,74,0.00,,,0.00,668,weatherlink.com 1.10,2013-05-23 14:44:00,
2013-05-23 10:59:00,84.2,75.0,30.04,ENE,65,7.0,23.0,74,0.00,,,0.00,991,weatherlink.com 1.10,2013-05-23 14:59:00,
2013-05-23 11:14:00,85.3,75.0,30.04,East,80,15.0,20.0,71,0.00,,,0.00,1092,weatherlink.com 1.10,2013-05-23 15:14:00,
2013-05-23 11:29:00,85.8,75.0,30.03,NE,42,11.0,20.0,71,0.00,,,0.00,939,weatherlink.com 1.10,2013-05-23 15:29:00,
2013-05-23 11:44:00,85.0,75.0,30.03,East,101,11.0,18.0,72,0.00,,,0.00,403,weatherlink.com 1.10,2013-05-23 15:44:00,
2013-05-23 11:59:00,84.0,75.0,30.03,ENE,70,12.0,22.0,73,0.00,,,0.00,519,weatherlink.com 1.10,2013-05-23 15:59:00,
2013-05-23 12:14:00,82.7,74.0,30.04,East,80,13.0,21.0,75,0.00,,,0.00,93,weatherlink.com 1.10,2013-05-23 16:14:00,
2013-05-23 12:29:00,79.6,75.0,30.03,East,90,2.0,14.0,85,0.08,,,0.08,283,weatherlink.com 1.10,2013-05-23 16:29:00,
2013-05-23 12:44:00,79.7,75.0,30.02,ENE,63,15.0,20.0,85,0.09,,,0.09,628,weatherlink.com 1.10,2013-05-23 16:44:00,
2013-05-23 12:59:00,80.3,75.0,30.02,East,96,11.0,23.0,83,0.09,,,0.09,499,weatherlink.com 1.10,2013-05-23 16:59:00,
2013-05-23 13:14:00,80.7,75.0,30.02,East,92,23.0,25.0,82,0.09,,,0.09,520,weatherlink.com 1.10,2013-05-23 17:14:00,
2013-05-23 13:29:00,80.3,75.0,30.01,NE,54,20.0,25.0,83,0.01,,,0.09,708,weatherlink.com 1.10,2013-05-23 17:29:00,
2013-05-23 13:44:00,81.8,75.0,30.01,East,80,16.0,22.0,79,0.00,,,0.09,698,weatherlink.com 1.10,2013-05-23 17:44:00,
2013-05-23 13:59:00,82.3,75.0,30.00,ENE,65,11.0,19.0,79,0.00,,,0.09,552,weatherlink.com 1.10,2013-05-23 17:59:00,
2013-05-23 14:14:00,83.8,75.0,29.99,East,89,14.0,25.0,75,0.00,,,0.09,921,weatherlink.com 1.10,2013-05-23 18:14:00,
2013-05-23 14:29:00,84.7,75.0,29.99,ENE,62,9.0,16.0,73,0.00,,,0.09,976,weatherlink.com 1.10,2013-05-23 18:29:00,
2013-05-23 14:44:00,84.8,75.0,29.99,East,90,9.0,18.0,72,0.00,,,0.09,895,weatherlink.com 1.10,2013-05-23 18:44:00,
2013-05-23 14:59:00,84.7,75.0,29.99,NE,42,10.0,19.0,72,0.00,,,0.09,914,weatherlink.com 1.10,2013-05-23 18:59:00,
2013-05-23 15:14:00,85.2,75.0,29.99,ENE,59,13.0,23.0,72,0.00,,,0.09,846,weatherlink.com 1.10,2013-05-23 19:14:00,
2013-05-23 15:29:00,84.6,75.0,29.99,ENE,66,8.0,19.0,73,0.00,,,0.09,795,weatherlink.com 1.10,2013-05-23 19:29:00,
2013-05-23 15:44:00,84.5,75.0,29.99,East,93,6.0,23.0,74,0.00,,,0.09,717,weatherlink.com 1.10,2013-05-23 19:44:00,
2013-05-23 15:59:00,84.3,76.0,29.99,ENE,59,17.0,21.0,75,0.00,,,0.09,487,weatherlink.com 1.10,2013-05-23 19:59:00,
2013-05-23 16:14:00,83.4,76.0,29.98,East,83,10.0,21.0,77,0.00,,,0.09,330,weatherlink.com 1.10,2013-05-23 20:14:00,
2013-05-23 16:29:00,82.7,75.0,29.98,NE,43,11.0,20.0,78,0.00,,,0.09,264,weatherlink.com 1.10,2013-05-23 20:29:00,
2013-05-23 16:44:00,82.3,75.0,29.98,NE,54,13.0,22.0,79,0.00,,,0.09,260,weatherlink.com 1.10,2013-05-23 20:44:00,
2013-05-23 16:59:00,82.6,75.0,29.98,East,86,10.0,21.0,77,0.00,,,0.09,527,weatherlink.com 1.10,2013-05-23 20:59:00,
2013-05-23 17:14:00,82.9,75.0,29.99,ENE,63,21.0,21.0,76,0.00,,,0.09,278,weatherlink.com 1.10,2013-05-23 21:14:00,
2013-05-23 17:29:00,82.3,74.0,29.98,ENE,63,11.0,16.0,76,0.00,,,0.09,149,weatherlink.com 1.10,2013-05-23 21:29:00,
2013-05-23 17:44:00,81.8,74.0,29.99,East,93,9.0,15.0,76,0.00,,,0.09,74,weatherlink.com 1.10,2013-05-23 21:44:00,
2013-05-23 17:59:00,81.0,73.0,29.99,ENE,69,4.0,17.0,76,0.00,,,0.09,62,weatherlink.com 1.10,2013-05-23 21:59:00,
2013-05-23 18:14:00,80.7,73.0,29.99,ENE,61,10.0,19.0,76,0.00,,,0.09,58,weatherlink.com 1.10,2013-05-23 22:14:00,
2013-05-23 18:29:00,81.0,74.0,29.99,ENE,74,8.0,17.0,79,0.00,,,0.09,37,weatherlink.com 1.10,2013-05-23 22:29:00,
2013-05-23 18:44:00,80.5,74.0,29.99,East,86,6.0,17.0,80,0.00,,,0.09,14,weatherlink.com 1.10,2013-05-23 22:44:00,
2013-05-23 18:59:00,80.2,74.0,30.00,ENE,69,8.0,18.0,80,0.00,,,0.09,5,weatherlink.com 1.10,2013-05-23 22:59:00,
2013-05-23 19:14:00,80.0,73.0,30.00,ENE,74,12.0,18.0,79,0.00,,,0.09,0,weatherlink.com 1.10,2013-05-23 23:14:00,
2013-05-23 19:29:00,79.9,73.0,30.00,ENE,76,11.0,17.0,80,0.00,,,0.09,0,weatherlink.com 1.10,2013-05-23 23:29:00,
2013-05-23 19:44:00,79.9,73.0,30.01,East,86,11.0,21.0,80,0.00,,,0.09,0,weatherlink.com 1.10,2013-05-23 23:44:00,
2013-05-23 19:59:00,79.7,73.0,30.01,ENE,61,12.0,16.0,81,0.00,,,0.09,0,weatherlink.com 1.10,2013-05-23 23:59:00,
2013-05-23 20:14:00,79.7,74.0,30.01,NE,54,11.0,20.0,82,0.00,,,0.09,0,weatherlink.com 1.10,2013-05-24 00:14:00,
2013-05-23 20:29:00,79.6,74.0,30.02,East,85,11.0,17.0,83,0.00,,,0.09,0,weatherlink.com 1.10,2013-05-24 00:29:00,
2013-05-23 20:44:00,79.6,74.0,30.02,ENE,63,23.0,23.0,83,0.00,,,0.09,0,weatherlink.com 1.10,2013-05-24 00:44:00,
2013-05-23 20:59:00,79.5,74.0,30.03,ENE,68,10.0,22.0,83,0.00,,,0.09,0,weatherlink.com 1.10,2013-05-24 00:59:00,
2013-05-23 21:14:00,79.5,74.0,30.03,ENE,62,8.0,17.0,83,0.00,,,0.09,0,weatherlink.com 1.10,2013-05-24 01:14:00,
2013-05-23 21:29:00,79.4,74.0,30.03,ENE,78,7.0,15.0,83,0.00,,,0.09,0,weatherlink.com 1.10,2013-05-24 01:29:00,
2013-05-23 21:44:00,79.3,74.0,30.04,East,84,6.0,15.0,83,0.00,,,0.09,0,weatherlink.com 1.10,2013-05-24 01:44:00,
2013-05-23 21:59:00,79.4,74.0,30.04,ENE,76,12.0,18.0,83,0.00,,,0.09,0,weatherlink.com 1.10,2013-05-24 01:59:00,
2013-05-23 22:14:00,79.4,74.0,30.04,East,82,9.0,14.0,83,0.00,,,0.09,0,weatherlink.com 1.10,2013-05-24 02:14:00,
2013-05-23 22:29:00,79.3,74.0,30.04,ENE,66,9.0,19.0,83,0.00,,,0.09,0,weatherlink.com 1.10,2013-05-24 02:29:00,
2013-05-23 22:44:00,79.5,74.0,30.04,East,80,14.0,20.0,83,0.00,,,0.09,0,weatherlink.com 1.10,2013-05-24 02:44:00,
2013-05-23 22:59:00,79.4,74.0,30.05,East,86,10.0,21.0,83,0.00,,,0.09,0,weatherlink.com 1.10,2013-05-24 02:59:00,
2013-05-23 23:14:00,79.4,74.0,30.05,NE,42,10.0,21.0,83,0.00,,,0.09,0,weatherlink.com 1.10,2013-05-24 03:14:00,
2013-05-23 23:29:00,79.3,74.0,30.04,ENE,76,7.0,12.0,83,0.00,,,0.09,0,weatherlink.com 1.10,2013-05-24 03:29:00,
2013-05-23 23:44:00,79.3,74.0,30.03,NE,49,9.0,17.0,83,0.00,,,0.09,0,weatherlink.com 1.10,2013-05-24 03:44:00,
2013-05-23 23:59:00,79.3,74.0,30.03,ENE,71,7.0,15.0,84,0.00,,,0.09,0,weatherlink.com 1.10,2013-05-24 03:59:00,